Starlink 32933

operational
NORAD ID: 63082 Int'l Des: 2025-037 Owner: SPXS Country: US Constellation: starlink
LEOCIRCULAR

Starlink 32933について

説明を読み込み中...

リアルタイム位置

3D地球を読み込み中...

次回通過

高度履歴

Altitude vs Time

uPlot chart will show altitude changes over time

軌道要素

1 63082U 25037F 25354.65848625 -.00004093 00000-0 -33550-3 0 9996
2 63082 69.9980 193.7229 0002022 245.2393 114.8556 14.98327519 46705
Epoch: Dec 20, 2025 • Age: 10 hours

現在のステータス

高度 574.6 km
速度 7.57 km/s
衛星直下点 7.96°N, 83.91°E
打ち上げ日 Feb 23, 2025
運用期間 0.8 years
タイプ internet

技術仕様

分類 Payload
質量 730.00 kg
乾燥質量 700.00 kg
総質量 730.00 kg
長さ 0.30 m
直径 4.10 m
スパン 29.00 m
形状 Box + pan
製造者 SPXS
バスタイプ Starlink V2M
フェーズステータス In Orbit
所有者/国 SPXS/US

大規模コンステレーション

Loading constellations...